Location: Antichan
(42.9728°N, 0.6667°E)
Time: 08:30:11
(UTC+00:00)

Cosmos 1934 Rocket - Pass Details

Date: 15 August 2020
Orbit: 937 x 1000 km, 83.0° (Epoch: 18 September)

Event Time Altitude Azimuth Distance (km) Brightness Sun altitude
Rises 20:26:38 0° 193° (SSW) 3,704 6.8 -15.0°
Reaches altitude 10° 20:29:10 10° 195° (SSW) 2,761 6.2 -15.4°
Maximum altitude 20:35:30 70° 279° (W) 1,059 4.3 -16.3°
Drops below altitude 10° 20:41:52 10° 3° (N) 2,771 6.8 -17.2°
Sets 20:44:25 0° 6° (N) 3,718 7.5 -17.6°
